{"data":{"norad_id":59164,"epoch":"2026-05-24T23:18:51.362784Z","epoch_age_seconds":80743,"freshness":"FRESH","line1":"1 59164U 24044N   26144.97142781  .00009047  00000+0  33785-3 0  9993","line2":"2 59164  43.0012  36.0760 0001397 249.9725 110.0976 15.27583360125267","mean_motion":15.2758336,"eccentricity":0.0001397,"inclination_deg":43.0012,"raan_deg":36.076,"arg_perigee_deg":249.9725,"mean_anomaly_deg":110.0976,"bstar":0.00033785,"rev_number":12526,"period_min":94.266541368976,"perigee_km":482.08052871725,"apogee_km":483.99754130143,"semimajor_km":6861.1760350093,"source":"CELESTRAK","updated_at":"2026-05-25T13:38:18.834915Z"}}